Zurück zum Katalog

COSMOS 1275 DEB

LostPO
NORAD 42162·DEBRIS·🇷🇺 Russia

Gestartet Jun 4, 1981 von Plesetsk Cosmodrome

Loading…

Nächste Überflüge (nächste 24 Stunden)

TLE

VeraltetSource: Space-Track

Epoche: Aug 8, 2026, 02:33 UTC

1 42162U 81053SA  26220.10688751  .00000974  00000-0  73417-3 0  9995
2 42162  82.8772 136.3350 0073055 196.7969 222.5250 13.92088159645402

Verfolge COSMOS 1275 DEB in Echtzeit mit AllMySat

Download on the App Store